Location: Berg
(48.4333°N, 13.9167°E)
Time: 22:10:02
(UTC+00:00)

Landsat 7 - Pass Details

Date: 18 September 2020
Orbit: 701 x 703 km, 98.1° (Epoch: 31 October)

Event Time Altitude Azimuth Distance (km) Brightness Sun altitude
Exits shadow 19:25:45 40° 62° (ENE) 1,040 4.4 -22.3°
Drops below altitude 10° 19:30:02 10° 359° (N) 2,184 6.7 -22.9°
Sets 19:32:24 0° 353° (N) 3,107 7.7 -23.2°
